User: anonymous   Login
Location: Vancouver
(49.2500°N, 123.1330°W)
Time: 09:16:34
(UTC-07:00)
Language:

SO-67 - Orbit

View from above orbital plane
View from above orbital plane
View from above satellite
View from above satellite

Ground track
Ground track

The orbit data is extracted from the following two-line orbital elements,

1 35870U 09049F   17292.33006331  .00006802  00000-0  10257-3 0  9999
2 35870  97.0983 307.9978 0002286  32.7744  95.4201 15.55092177452508
Epoch (UTC): 19 October 2017 07:55:17
Eccentricity: 0.0002286
inclination: 97.0983°
perigee height: 400 km
apogee height: 403 km
right ascension of ascending node: 307.9978°
argument of perigee: 32.7744°
revolutions per day: 15.55092177
mean anomaly at epoch: 95.4201°
orbit number at epoch: 45250

The dashed part of the orbit path shows where the satellite is in the earth's shadow,  

DLR